Location: Unspecified
(0.0000°N, 0.0000°E)
Time: 00:36:08
(UTC+00:00)

USA 125 - Pass Details

Date: 20 May 2026
Orbit: 363 x 39930 km, 64.0° (Epoch: 9 October)

Event Time Altitude Azimuth Distance (km) Brightness Sun altitude
Rises 18:54:16 0° 344° (NNW) 12,507 ? -13.5°
Reaches altitude 10° 19:09:05 10° 355° (N) 6,942 ? -17.0°
Maximum altitude 19:19:49 22° 40° (NE) 2,613 ? -19.5°
Enters shadow 19:21:44 19° 65° (ENE) 2,224 ? -19.9°
